Allentown, PA

11:52 AM EDT on July 23, 2017 (GMT -0400)
Lehigh Valley International

Weather History for KABE - January, 2013

Change the Weather History Date:

Wednesday, January 2, 2013

  Actual Average Record
Temperature  
Mean Temperature 25 °F 28 °F  
Max Temperature 31 °F 36 °F 59 °F (1979)
Min Temperature 19 °F 20 °F -7 °F (1968)
Degree Days  
Heating Degree Days 40 37  
Month to date heating degree days 74 74  
Since 1 July heating degree days 2058 2269  
Cooling Degree Days 0 0  
Month to date cooling degree days 0 0  
Year to date cooling degree days 0 0  
Moisture  
Dew Point 14 °F    
Average Humidity 61    
Maximum Humidity 73    
Minimum Humidity 49    
Precipitation  
Precipitation 0.00 in 0.09 in 1.37 in (1979)
Month to date precipitation T 0.18  
Year to date precipitation T 0.18  
Snow  
Snow 0.00 in 0.20 in 5.20 in (1925)
Month to date snowfall T 0.5  
Since 1 July snowfall 7.6 6.4  
Snow Depth 0.00 in    
Sea Level Pressure  
Sea Level Pressure 30.09 in    
Wind  
Wind Speed 7 mph (WNW)    
Max Wind Speed 15 mph    
Max Gust Speed 22 mph    
Visibility 10 miles    
Events      
T = Trace of Precipitation, MM = Missing Value Source: NWS Daily Summary

Daily Weather History Graph

Daily Weather History Graph

Search for Another Location

Airport or City:

Trip Planner

Search our weather history database for the weather conditions in past years. The results will help you decide how hot, cold, wet, or windy it might be!

Date:

Astronomy

Jan. 02, 2013 Rise Set
Actual Time 7:25 AM EST 4:46 PM EST
Civil Twilight 6:55 AM EST 5:17 PM EST
Nautical Twilight 6:20 AM EST 5:51 PM EST
Astronomical Twilight 5:47 AM EST 6:24 PM EST
Moon 10:18 PM EST (1/2) 10:04 AM EST (1/2)
Length of Visible Light 10h 22m
Length of Day
9h 20m
Waning Gibbous, 75% of the Moon is Illuminated
Jan 2
Waning Gibbous
Jan 4
Last Quarter
Jan 11
New
Jan 18
First Quarter
Jan 26
Full

Hourly Weather History & Observations

Time (EST) Temp. Windchill Dew Point Humidity Pressure Visibility Wind Dir Wind Speed Gust Speed Precip Events Conditions
12:51 AM 25.0 °F 18.1 °F 14.0 °F 63% 30.02 in 10.0 mi NW 5.8 mph - N/A   Clear
1:51 AM 25.0 °F 17.1 °F 14.0 °F 63% 30.03 in 10.0 mi North 6.9 mph - N/A   Clear
2:51 AM 24.1 °F - 12.9 °F 62% 30.04 in 10.0 mi Calm Calm - N/A   Scattered Clouds
3:51 AM 23.0 °F 13.9 °F 12.9 °F 65% 30.03 in 10.0 mi North 8.1 mph - N/A   Clear
4:51 AM 21.0 °F 16.2 °F 12.9 °F 71% 30.04 in 10.0 mi NNW 3.5 mph - N/A   Clear
5:51 AM 21.0 °F - 12.9 °F 71% 30.04 in 10.0 mi Calm Calm - N/A   Clear
6:51 AM 21.9 °F - 12.0 °F 66% 30.05 in 10.0 mi Calm Calm - N/A   Clear
7:51 AM 19.9 °F 13.4 °F 12.9 °F 74% 30.06 in 10.0 mi WSW 4.6 mph - N/A   Clear
8:51 AM 24.1 °F 18.2 °F 15.1 °F 69% 30.08 in 10.0 mi WSW 4.6 mph - N/A   Mostly Cloudy
9:51 AM 27.0 °F 18.7 °F 15.1 °F 61% 30.09 in 10.0 mi West 8.1 mph - N/A   Clear
10:51 AM 28.0 °F 18.1 °F 15.1 °F 58% 30.10 in 10.0 mi West 11.5 mph - N/A   Mostly Cloudy
11:51 AM 28.4 °F 19.7 °F 15.8 °F 59% 30.06 in 10.0 mi West 9.2 mph - N/A   Overcast
12:51 PM 30.0 °F 20.0 °F 15.1 °F 54% 30.08 in 10.0 mi WNW 12.7 mph - N/A   Mostly Cloudy
1:51 PM 30.9 °F 22.2 °F 15.1 °F 52% 30.08 in 10.0 mi WNW 10.4 mph 17.3 mph N/A   Clear
2:51 PM 30.9 °F 21.2 °F 15.1 °F 52% 30.09 in 10.0 mi NW 12.7 mph 17.3 mph N/A   Clear
3:51 PM 30.9 °F 22.2 °F 14.0 °F 50% 30.10 in 10.0 mi WNW 10.4 mph - N/A   Clear
4:51 PM 28.9 °F 20.4 °F 14.0 °F 54% 30.12 in 10.0 mi WNW 9.2 mph - N/A   Clear
5:51 PM 27.0 °F 20.5 °F 14.0 °F 58% 30.14 in 10.0 mi West 5.8 mph - N/A   Clear
6:51 PM 25.0 °F 19.3 °F 14.0 °F 63% 30.15 in 10.0 mi WSW 4.6 mph - N/A   Clear
7:51 PM 21.9 °F 14.5 °F 12.9 °F 68% 30.16 in 10.0 mi WSW 5.8 mph - N/A   Clear
8:51 PM 23.0 °F 13.9 °F 14.0 °F 68% 30.16 in 10.0 mi WSW 8.1 mph - N/A   Clear
9:51 PM 26.1 °F 20.5 °F 14.0 °F 60% 30.18 in 10.0 mi West 4.6 mph - N/A   Clear
10:51 PM 24.1 °F 17.0 °F 14.0 °F 65% 30.20 in 10.0 mi WSW 5.8 mph - N/A   Clear
11:51 PM 24.1 °F 19.7 °F 14.0 °F 65% 30.22 in 10.0 mi West 3.5 mph - N/A   Clear